User: anonymous   Login
Location: Dalton
(34.7700°N, 84.9700°W)
Time: 14:59:10
(UTC-05:00)
Language:

Tiangong 2 - Orbit

View from above orbital plane
View from above orbital plane
View from above satellite
View from above satellite

Ground track
Ground track

The orbit data is extracted from the following two-line orbital elements,

1 41765U 16057A   17349.44447116  .00005251  00000-0  68154-4 0  9998
2 41765  42.7852 357.6579 0002452  34.4086 113.6895 15.59831037 71275
Epoch (UTC): 15 December 2017 10:40:02
Eccentricity: 0.0002452
inclination: 42.7852°
perigee height: 386 km
apogee height: 390 km
right ascension of ascending node: 357.6579°
argument of perigee: 34.4086°
revolutions per day: 15.59831037
mean anomaly at epoch: 113.6895°
orbit number at epoch: 7127

The dashed part of the orbit path shows where the satellite is in the earth's shadow,  

DLR